Location: Boullarre
(49.1305°N, 3.0047°E)
Time: 07:13:23
(UTC+00:00)

SL-08 ROCKET BODY - Visible Passes

Search period start: 24 September 2023 00:00
Search period end: 04 October 2023 00:00
Orbit: 896 x 962 km, 82.9° (Epoch: 23 September)

Date Brightness Start Highest point End Pass type
(mag) Time Alt. Az. Time Alt. Az. Time Alt. Az.
24 Sep 5.9 03:00:37 10° SSE 03:06:06 35° E 03:11:35 10° NNE visible
24 Sep 4.8 04:44:29 10° SW 04:50:22 45° WNW 04:56:16 10° N visible
25 Sep 5.4 03:11:41 10° SSE 03:17:33 47° E 03:23:24 10° NNE visible
25 Sep 5.1 04:56:35 10° SW 05:02:07 34° WNW 05:07:40 10° N visible
26 Sep 7.2 01:44:19 10° E 01:45:53 11° ENE 01:47:27 10° ENE visible
26 Sep 4.8 03:22:57 10° S 03:29:02 64° E 03:35:07 10° NNE visible
27 Sep 7.0 01:53:40 10° ESE 01:57:07 16° ENE 02:00:34 10° NE visible
27 Sep 4.4 03:34:27 10° S 03:40:35 85° E 03:46:46 10° N visible
28 Sep 6.6 02:03:57 10° SE 02:08:25 21° E 02:12:52 10° NE visible
28 Sep 4.4 03:47:02 15° SSW 03:52:11 72° W 03:58:20 10° N visible
29 Sep 6.1 02:15:45 15° SE 02:19:47 29° E 02:24:54 10° NNE visible
29 Sep 4.6 03:59:29 19° SSW 04:03:51 54° WNW 04:09:51 10° N visible
30 Sep 5.6 02:28:06 24° SE 02:31:10 39° E 02:36:46 10° NNE visible
30 Sep 4.9 04:11:50 20° SW 04:15:33 40° WNW 04:21:17 10° N visible
01 Oct 5.1 02:40:23 35° SE 02:42:38 53° E 02:48:32 10° NNE visible
01 Oct 5.2 04:24:06 19° WSW 04:27:19 30° WNW 04:32:39 10° N visible
02 Oct 7.0 01:08:51 11° E 01:10:52 12° ENE 01:13:16 10° NE visible
02 Oct 4.6 02:52:34 50° SSE 02:54:09 71° E 03:00:13 10° NNE visible
02 Oct 5.6 04:36:18 17° W 04:39:09 23° WNW 04:43:54 10° NNW visible
03 Oct 6.6 01:20:59 17° E 01:22:08 17° E 01:25:56 10° NE visible
03 Oct 4.3 03:04:42 65° SSW 03:05:42 86° W 03:11:50 10° N visible
03 Oct 5.9 04:48:26 14° W 04:51:03 17° WNW 04:54:59 10° NNW visible
